| time (UTC) | temp C | wind direction | speed KPH | gust KPH | rain 1hr cm | rain 24hr cm | rain mn cm | humidity % | barometer mb |
| 20260507065708 | 7 | 91 | 0.0 | 0.0 | 0.00 | 0.00 | 0.00 | 95 | 1040.7 |
| 20260507064703 | 7 | 91 | 0.0 | 0.0 | 0.00 | 0.00 | 0.00 | 95 | 1040.9 |
| 20260507063659 | 7 | 91 | 0.0 | 0.0 | 0.00 | 0.00 | 0.00 | 95 | 1040.6 |
| 20260507062658 | 7 | 91 | 0.0 | 0.0 | 0.00 | 0.00 | 0.00 | 95 | 1040.6 |
| 20260507061654 | 7 | 91 | 0.0 | 0.0 | 0.00 | 0.00 | 0.00 | 95 | 1040.3 |
| 20260507060649 | 7 | 92 | 0.0 | 0.0 | 0.00 | 0.00 | 0.00 | 95 | 1040.4 |
| 20260507055647 | 7 | 87 | 0.0 | 0.0 | 0.00 | 0.00 | 0.00 | 95 | 1040.1 |
| 20260507054645 | 7 | 87 | 0.0 | 0.0 | 0.00 | 0.00 | 0.00 | 95 | 1040.4 |
| 20260507053640 | 7 | 91 | 0.0 | 0.0 | 0.00 | 0.00 | 0.00 | 95 | 1040.0 |
| 20260507052636 | 7 | 99 | 0.0 | 0.0 | 0.00 | 0.00 | 0.00 | 95 | 1040.2 |
| 20260507051636 | 7 | 99 | 0.0 | 0.0 | 0.00 | 0.00 | 0.00 | 95 | 1040.0 |
| 20260507050635 | 7 | 91 | 0.0 | 0.0 | 0.00 | 0.00 | 0.00 | 95 | 1040.2 |
| 20260507045634 | 7 | 88 | 0.0 | 0.0 | 0.00 | 0.00 | 0.00 | 95 | 1039.8 |
| 20260507044634 | 7 | 89 | 0.0 | 0.0 | 0.00 | 0.00 | 0.00 | 95 | 1040.0 |
| 20260507043633 | 7 | 88 | 0.0 | 0.0 | 0.00 | 0.00 | 0.00 | 95 | 1040.0 |
| 20260507042632 | 7 | 88 | 0.0 | 0.0 | 0.00 | 0.00 | 0.00 | 95 | 1039.8 |
| 20260507041630 | 8 | 105 | 1.6 | 1.6 | 0.00 | 0.00 | 0.00 | 95 | 1039.9 |
| 20260507040630 | 8 | 89 | 0.0 | 0.0 | 0.00 | 0.00 | 0.00 | 95 | 1040.1 |
| 20260507035628 | 7 | 86 | 0.0 | 0.0 | 0.00 | 1.22 | 1.22 | 95 | 1040.6 |
| 20260507034627 | 8 | 94 | 0.0 | 0.0 | 0.00 | 1.22 | 1.22 | 95 | 1040.5 |
| 20260507033623 | 8 | 96 | 0.0 | 0.0 | 0.00 | 1.22 | 1.22 | 95 | 1040.2 |
| 20260507032623 | 8 | 91 | 0.0 | 0.0 | 0.00 | 1.22 | 1.22 | 95 | 1039.9 |
| 20260507031621 | 8 | 87 | 0.0 | 0.0 | 0.00 | 1.22 | 1.22 | 95 | 1039.9 |
| 20260507030620 | 8 | 86 | 1.6 | 1.6 | 0.00 | 1.22 | 1.22 | 95 | 1039.8 |
| 20260507025615 | 8 | 89 | 0.0 | 0.0 | 0.00 | 1.22 | 1.22 | 95 | 1039.9 |
| 20260507024610 | 8 | 87 | 0.0 | 0.0 | 0.00 | 1.22 | 1.22 | 95 | 1039.8 |
| 20260507023608 | 8 | 99 | 0.0 | 0.0 | 0.00 | 1.22 | 1.22 | 95 | 1039.8 |
| 20260507022603 | 8 | 101 | 0.0 | 0.0 | 0.00 | 1.22 | 1.22 | 95 | 1040.4 |
| 20260507021600 | 8 | 86 | 0.0 | 0.0 | 0.00 | 1.22 | 1.22 | 95 | 1040.6 |
| 20260507020555 | 8 | 85 | 0.0 | 0.0 | 0.00 | 1.22 | 1.22 | 95 | 1040.7 |
| 20260507015555 | 8 | 96 | 0.0 | 0.0 | 0.00 | 1.22 | 1.22 | 95 | 1040.5 |
| 20260507014555 | 8 | 92 | 0.0 | 0.0 | 0.00 | 1.22 | 1.22 | 95 | 1040.9 |
| 20260507013553 | 8 | 92 | 0.0 | 0.0 | 0.00 | 1.22 | 1.22 | 95 | 1040.7 |
| 20260507012548 | 8 | 92 | 0.0 | 0.0 | 0.00 | 1.22 | 1.22 | 94 | 1040.7 |
| 20260507011547 | 8 | 92 | 0.0 | 0.0 | 0.00 | 1.22 | 1.22 | 94 | 1040.6 |
| 20260507010543 | 8 | 92 | 0.0 | 0.0 | 0.00 | 1.22 | 1.22 | 94 | 1040.4 |
| 20260507005538 | 9 | 92 | 0.0 | 0.0 | 0.00 | 1.22 | 1.22 | 94 | 1040.5 |
| 20260507004537 | 9 | 92 | 0.0 | 0.0 | 0.00 | 1.22 | 1.22 | 93 | 1040.1 |
| 20260507003536 | 9 | 88 | 0.0 | 0.0 | 0.00 | 1.22 | 1.22 | 93 | 1040.2 |
| 20260507002534 | 9 | 85 | 0.0 | 0.0 | 0.00 | 1.22 | 1.22 | 93 | 1039.9 |
| 20260507001532 | 9 | 90 | 0.0 | 0.0 | 0.00 | 1.22 | 1.22 | 92 | 1039.6 |
| 20260507000532 | 9 | 84 | 1.6 | 1.6 | 0.00 | 1.22 | 1.22 | 92 | 1039.3 |
| 20260506235531 | 10 | 91 | 0.0 | 1.6 | 0.00 | 1.22 | 1.22 | 92 | 1039.1 |
| 20260506234530 | 10 | 124 | 3.2 | 3.2 | 0.00 | 1.22 | 1.22 | 91 | 1038.8 |
| 20260506233530 | 10 | 90 | 1.6 | 1.6 | 0.00 | 1.22 | 1.22 | 90 | 1039.1 |
| 20260506232529 | 10 | 100 | 0.0 | 1.6 | 0.00 | 1.22 | 1.22 | 90 | 1038.9 |
| 20260506231528 | 10 | 144 | 4.8 | 4.8 | 0.00 | 1.22 | 1.22 | 91 | 1038.7 |
| 20260506230527 | 10 | 102 | 1.6 | 1.6 | 0.00 | 1.22 | 1.22 | 92 | 1038.5 |
| 20260506225527 | 10 | 100 | 0.0 | 0.0 | 0.00 | 1.22 | 1.22 | 90 | 1038.5 |
| 20260506224525 | 10 | 83 | 1.6 | 1.6 | 0.00 | 1.22 | 1.22 | 89 | 1038.1 |
| 20260506223523 | 10 | 113 | 1.6 | 3.2 | 0.00 | 1.22 | 1.22 | 90 | 1037.8 |
| 20260506222522 | 11 | 102 | 1.6 | 1.6 | 0.00 | 1.22 | 1.22 | 91 | 1037.9 |
| 20260506221521 | 11 | 294 | 6.4 | 8.0 | 0.00 | 1.22 | 1.22 | 91 | 1037.5 |
| 20260506220520 | 11 | 69 | 3.2 | 3.2 | 0.00 | 1.22 | 1.22 | 91 | 1037.3 |
| 20260506215519 | 12 | 121 | 1.6 | 1.6 | 0.00 | 1.22 | 1.22 | 91 | 1036.8 |
| 20260506214517 | 13 | 143 | 3.2 | 4.8 | 0.00 | 1.22 | 1.22 | 93 | 1036.4 |
| 20260506213513 | 13 | 17 | 4.8 | 4.8 | 0.00 | 1.22 | 1.22 | 94 | 1036.1 |
| 20260506212511 | 15 | 80 | 0.0 | 1.6 | 0.18 | 1.22 | 1.22 | 95 | 1035.6 |
| 20260506211509 | 15 | 86 | 1.6 | 1.6 | 0.00 | 1.19 | 1.19 | 95 | 1035.3 |
| 20260506210508 | 15 | 104 | 0.0 | 1.6 | 0.30 | 1.19 | 1.19 | 94 | 1035.2 |
| 20260506205508 | 16 | 91 | 0.0 | 0.0 | 0.00 | 1.14 | 1.14 | 94 | 1035.3 |
| 20260506204508 | 15 | 98 | 0.0 | 0.0 | 0.13 | 1.14 | 1.14 | 94 | 1035.1 |
| 20260506203502 | 15 | 86 | 0.0 | 0.0 | 0.00 | 1.12 | 1.12 | 93 | 1035.2 |
| 20260506202502 | 16 | 101 | 1.6 | 1.6 | 0.18 | 1.12 | 1.12 | 93 | 1034.9 |
| 20260506201502 | 16 | 86 | 1.6 | 1.6 | 0.00 | 1.09 | 1.09 | 92 | 1035.0 |
| 20260506200500 | 16 | 96 | 0.0 | 0.0 | 0.00 | 1.09 | 1.09 | 91 | 1035.0 |
| 20260506195500 | 16 | 124 | 3.2 | 3.2 | 0.00 | 1.09 | 1.09 | 92 | 1035.1 |
| 20260506194459 | 16 | 90 | 1.6 | 3.2 | 0.00 | 1.09 | 1.09 | 92 | 1035.0 |
| 20260506193459 | 15 | 72 | 1.6 | 3.2 | 0.00 | 1.09 | 1.09 | 93 | 1035.1 |
| 20260506192459 | 15 | 100 | 0.0 | 1.6 | 0.00 | 1.09 | 1.09 | 94 | 1035.4 |
| 20260506191458 | 15 | 115 | 3.2 | 3.2 | 0.00 | 1.09 | 1.09 | 95 | 1035.3 |
| 20260506190457 | 15 | 244 | 3.2 | 4.8 | 0.00 | 1.09 | 1.09 | 95 | 1035.4 |
| 20260506185457 | 15 | 126 | 3.2 | 3.2 | 0.00 | 1.09 | 1.09 | 95 | 1035.4 |
| 20260506184457 | 15 | 74 | 3.2 | 3.2 | 0.00 | 1.09 | 1.09 | 95 | 1035.4 |
| 20260506183455 | 15 | 75 | 1.6 | 1.6 | 0.00 | 1.09 | 1.09 | 95 | 1035.5 |
| 20260506182455 | 15 | 89 | 0.0 | 0.0 | 0.00 | 1.09 | 1.09 | 95 | 1035.6 |
| 20260506181451 | 15 | 90 | 0.0 | 0.0 | 0.00 | 1.09 | 1.09 | 95 | 1035.8 |
| 20260506180449 | 15 | 76 | 1.6 | 1.6 | 0.00 | 1.09 | 1.09 | 95 | 1035.8 |
| 20260506175449 | 15 | 98 | 0.0 | 0.0 | 0.00 | 1.09 | 1.09 | 95 | 1035.7 |
| 20260506174450 | 15 | 92 | 0.0 | 1.6 | 0.13 | 1.09 | 1.09 | 95 | 1035.9 |
| 20260506173449 | 15 | 99 | 0.0 | 0.0 | 0.00 | 1.07 | 1.07 | 95 | 1035.5 |
| 20260506172450 | 15 | 99 | 0.0 | 0.0 | 0.00 | 1.07 | 1.07 | 95 | 1035.6 |
| 20260506171449 | 15 | 87 | 0.0 | 0.0 | 0.00 | 1.07 | 1.07 | 95 | 1035.7 |
| 20260506170449 | 15 | 99 | 0.0 | 0.0 | 0.18 | 1.07 | 1.07 | 95 | 1035.7 |
| 20260506165446 | 15 | 99 | 0.0 | 0.0 | 0.00 | 1.04 | 1.04 | 95 | 1036.1 |
| 20260506164444 | 15 | 98 | 0.0 | 0.0 | 0.00 | 1.04 | 1.04 | 95 | 1035.7 |
| 20260506163443 | 15 | 96 | 1.6 | 1.6 | 0.13 | 1.04 | 1.04 | 95 | 1036.0 |
| 20260506162442 | 15 | 93 | 0.0 | 0.0 | 0.00 | 1.02 | 1.02 | 95 | 1035.6 |
| 20260506161437 | 14 | 82 | 0.0 | 1.6 | 0.30 | 1.02 | 1.02 | 95 | 1035.8 |
| 20260506160437 | 14 | 84 | 0.0 | 0.0 | 0.18 | 0.97 | 0.97 | 95 | 1035.8 |
| 20260506155433 | 15 | 102 | 1.6 | 1.6 | 0.30 | 0.94 | 0.94 | 95 | 1035.8 |
| 20260506153559 | 14 | 99 | 0.0 | 0.0 | 0.30 | 0.86 | 0.86 | 95 | 1035.9 |
| 20260506152559 | 14 | 85 | 1.6 | 1.6 | 0.43 | 0.81 | 0.81 | 95 | 1036.0 |
| 20260506151555 | 14 | 92 | 0.0 | 1.6 | 0.30 | 0.74 | 0.74 | 95 | 1036.1 |
| 20260506150554 | 14 | 101 | 0.0 | 0.0 | 0.30 | 0.69 | 0.69 | 95 | 1036.3 |
| 20260506145553 | 14 | 124 | 1.6 | 3.2 | 0.36 | 0.64 | 0.64 | 95 | 1036.2 |
| 20260506144554 | 14 | 61 | 1.6 | 3.2 | 0.30 | 0.58 | 0.58 | 95 | 1036.2 |
| 20260506143548 | 14 | 94 | 0.0 | 0.0 | 0.13 | 0.53 | 0.53 | 95 | 1036.1 |
| 20260506142544 | 14 | 83 | 0.0 | 0.0 | 0.30 | 0.51 | 0.51 | 95 | 1036.1 |
| 20260506141539 | 14 | 97 | 0.0 | 0.0 | 0.30 | 0.48 | 0.48 | 95 | 1036.2 |
| 20260506140534 | 14 | 97 | 0.0 | 0.0 | 0.30 | 0.43 | 0.43 | 95 | 1036.5 |
| 20260506135534 | 13 | 95 | 0.0 | 0.0 | 0.30 | 0.38 | 0.38 | 95 | 1036.3 |
| 20260506134533 | 13 | 98 | 0.0 | 0.0 | 0.13 | 0.33 | 0.33 | 95 | 1036.2 |
| 20260506133532 | 13 | 98 | 0.0 | 0.0 | 0.48 | 0.30 | 0.30 | 95 | 1036.4 |
| 20260506132532 | 13 | 97 | 0.0 | 0.0 | 0.43 | 0.25 | 0.25 | 95 | 1036.7 |
| 20260506131532 | 13 | 97 | 0.0 | 0.0 | 0.30 | 0.18 | 0.18 | 95 | 1036.7 |
| 20260506130531 | 13 | 97 | 0.0 | 0.0 | 0.30 | 0.13 | 0.13 | 94 | 1036.9 |
| 20260506125527 | 13 | 97 | 0.0 | 0.0 | 0.18 | 0.08 | 0.08 | 94 | 1036.9 |
| 20260506124522 | 13 | 94 | 0.0 | 0.0 | 0.13 | 0.05 | 0.05 | 93 | 1037.2 |
| 20260506123518 | 12 | 106 | 1.6 | 1.6 | 0.18 | 0.03 | 0.03 | 93 | 1037.1 |
| 20260506122517 | 13 | 91 | 0.0 | 0.0 | 0.00 | 0.00 | 0.00 | 92 | 1036.9 |
| 20260506121513 | 12 | 92 | 0.0 | 0.0 | 0.00 | 0.00 | 0.00 | 92 | 1036.5 |
| 20260506120513 | 12 | 92 | 0.0 | 0.0 | 0.00 | 0.00 | 0.00 | 92 | 1036.5 |
| 20260506115508 | 12 | 91 | 0.0 | 0.0 | 0.00 | 0.00 | 0.00 | 91 | 1036.3 |
| 20260506114503 | 12 | 91 | 0.0 | 0.0 | 0.00 | 0.00 | 0.00 | 91 | 1036.5 |
| 20260506113459 | 12 | 90 | 1.6 | 1.6 | 0.00 | 0.00 | 0.00 | 91 | 1036.6 |
| 20260506112459 | 12 | 91 | 0.0 | 0.0 | 0.00 | 0.00 | 0.00 | 91 | 1036.3 |
| 20260506111454 | 12 | 91 | 0.0 | 0.0 | 0.00 | 0.00 | 0.00 | 91 | 1036.6 |
| 20260506110455 | 12 | 90 | 0.0 | 0.0 | 0.00 | 0.00 | 0.00 | 91 | 1036.6 |
| 20260506105453 | 12 | 97 | 0.0 | 0.0 | 0.00 | 0.00 | 0.00 | 91 | 1035.9 |
| 20260506104449 | 11 | 95 | 0.0 | 0.0 | 0.00 | 0.00 | 0.00 | 91 | 1036.1 |
| 20260506103443 | 11 | 95 | 1.6 | 1.6 | 0.00 | 0.00 | 0.00 | 91 | 1036.1 |
| 20260506102438 | 11 | 95 | 1.6 | 1.6 | 0.00 | 0.00 | 0.00 | 91 | 1035.8 |
| 20260506101437 | 11 | 93 | 1.6 | 1.6 | 0.00 | 0.00 | 0.00 | 90 | 1035.4 |
| 20260506100433 | 11 | 85 | 1.6 | 1.6 | 0.00 | 0.00 | 0.00 | 90 | 1035.7 |
| 20260506095429 | 11 | 78 | 0.0 | 1.6 | 0.00 | 0.00 | 0.00 | 91 | 1035.9 |
| 20260506094430 | 11 | 92 | 0.0 | 0.0 | 0.00 | 0.00 | 0.00 | 90 | 1035.8 |
| 20260506093424 | 11 | 93 | 0.0 | 0.0 | 0.00 | 0.00 | 0.00 | 90 | 1036.0 |
| 20260506092420 | 11 | 79 | 1.6 | 1.6 | 0.00 | 0.00 | 0.00 | 90 | 1036.0 |
| 20260506091420 | 11 | 88 | 3.2 | 3.2 | 0.00 | 0.00 | 0.00 | 90 | 1035.9 |
| 20260506090415 | 11 | 86 | 0.0 | 0.0 | 0.00 | 0.00 | 0.00 | 90 | 1036.0 |
| 20260506085414 | 11 | 86 | 0.0 | 0.0 | 0.00 | 0.00 | 0.00 | 90 | 1036.0 |
| 20260506084413 | 11 | 85 | 1.6 | 1.6 | 0.00 | 0.00 | 0.00 | 90 | 1035.9 |
| 20260506083413 | 11 | 98 | 0.0 | 0.0 | 0.00 | 0.00 | 0.00 | 90 | 1036.0 |
| 20260506082413 | 11 | 90 | 0.0 | 0.0 | 0.00 | 0.00 | 0.00 | 90 | 1036.2 |
| 20260506081413 | 11 | 80 | 0.0 | 0.0 | 0.00 | 0.00 | 0.00 | 90 | 1036.2 |
| 20260506080412 | 11 | 92 | 0.0 | 0.0 | 0.00 | 0.00 | 0.00 | 90 | 1036.2 |
| 20260506073402 | 11 | 97 | 0.0 | 0.0 | 0.00 | 0.00 | 0.00 | 90 | 1036.0 |
| 20260506072402 | 11 | 97 | 1.6 | 1.6 | 0.00 | 0.00 | 0.00 | 90 | 1036.2 |
| 20260506071358 | 11 | 96 | 0.0 | 0.0 | 0.00 | 0.00 | 0.00 | 90 | 1036.1 |